Regional Weather Roundup
Issued by NWS

Home | Current Version | Previous Version | Text Only | Print | Product List | Glossary Off
Versions: 1 2 3 4 5 6 7 8 9 10 11 12 13 14 15 16 17 18 19 20 21 22 23 24 25 26 27 28 29 30 31 32 33 34 35 36 37 38 39 40 41 42 43 44 45 46 47 48 49 50

000
ASUS43 KFSD 242310
RWRSD

WEATHER ROUNDUP FOR SOUTH DAKOTA
NATIONAL WEATHER SERVICE SIOUX FALLS SD
600 PM CDT THU APR 24 2014

NOTE: "FAIR" INDICATES FEW OR NO CLOUDS BELOW 12,000 FEET WITH NO
SIGNIFICANT WEATHER AND/OR OBSTRUCTIONS TO VISIBILITY.


SDZ001>005-009-010-012>017-250000-
NORTHWEST AND NORTH CENTRAL SOUTH DAKOTA

CITY           SKY/WX    TMP DP  RH WIND       PRES   REMARKS
BUFFALO          N/A     60  22  23 NW25      29.70S
FAITH            N/A     61  22  22 W23G31    29.75S
MOBRIDGE       MOSUNNY   64  19  17 NW18      29.68S
$$

SDZ012>016-024>037-041>051-057-063-072>074-250000-
SOUTHWEST AND SOUTH CENTRAL SOUTH DAKOTA

CITY           SKY/WX    TMP DP  RH WIND       PRES   REMARKS
RAPID CTY ARPT MOSUNNY   63  27  25 NE10      29.76S
PIERRE         SUNNY     65  22  19 NW21G29   29.72F
CUSTER         PTSUNNY   56  15  20 W14       29.81S
ELLSWORTH AFB  PTSUNNY   62  26  25 N14       29.76R
PHILIP         SUNNY     66  25  21 NW21G29   29.75R
PINE RIDGE     SUNNY     64  17  16 W16G26    29.77F
SPEARFISH      FAIR      57  23  26 NW12G21   29.78S
WINNER         FAIR      68  22  17 NW21G33   29.75S
$$

SDZ004>011-016>023-039-040-250000-
NORTHEAST SOUTH DAKOTA

CITY           SKY/WX    TMP DP  RH WIND       PRES   REMARKS
ABERDEEN       MOSUNNY   64  21  19 W16G29    29.67S
WATERTOWN      PTSUNNY   56  42  59 NE13G22   29.67R
SISSETON         N/A     53  44  71 E12G17    29.67F
$$

SDZ017-020-022-023-036>040-048>070-250000-
SOUTHEAST SOUTH DAKOTA

CITY           SKY/WX    TMP DP  RH WIND       PRES   REMARKS
SIOUX FALLS    PTSUNNY   63  41  44 VRB5      29.69S
HURON          MOSUNNY   66  19  16 W23G36    29.69F
CHAMBERLAIN      N/A     66  23  19 NW23G35   29.73S
MITCHELL       MOSUNNY   69  24  18 NW24G32   29.70F
YANKTON        SUNNY     70  25  18 NW25G31   29.72R
$$

ABBREVIATIONS USED IN REMARKS
   TC - TEMPERATURE IN CELSIUS
  WCI - WIND CHILL INDEX
   HX - HEAT INDEX
  VSB - VISIBILITY




USA.gov is the U.S. government's official web portal to all federal, state and local government web resources and services.